Regional Weather Roundup
Issued by NWS

Home | Current Version | Previous Version | Graphics & Text | Print | Product List | Glossary Off
Versions: 1 2 3 4 5 6 7 8 9 10 11 12 13 14 15 16 17 18 19 20 21 22 23 24 25 26 27 28 29 30 31 32 33 34 35 36 37 38 39 40 41 42 43 44 45 46 47 48 49 50

000
ASUS43 KTOP 020059
RWRKS

WEATHER ROUNDUP FOR KANSAS
NATIONAL WEATHER SERVICE GOODLAND KS
800 PM CDT MON JUN 01 2015

NOTE:  "FAIR" INDICATES FEW OR NO CLOUDS BELOW 12,000 FEET WITH NO
SIGNIFICANT WEATHER AND/OR OBSTRUCTIONS TO VISIBILITY.

KSZ001>006-013>018-027>032-041>047-020200-
NORTHWEST KANSAS

CITY           SKY/WX    TMP DP  RH WIND       PRES   REMARKS
GOODLAND       MOSUNNY   77  62  59 SE14      29.97F
HAYS           CLEAR     75  61  60 SE15      30.01R
HILL CITY      CLEAR     77  63  61 SE15G23   29.99R
RUSSELL        PTCLDY    73  61  65 SE20      30.00S
$$

KSZ061>065-074>080-084>089-020200-
SOUTHWEST KANSAS

CITY           SKY/WX    TMP DP  RH WIND       PRES   REMARKS
DODGE CITY     CLEAR     77  62  59 S16       30.01R
ELKHART          N/A     79  60  52 SE9         N/A
GARDEN CITY    CLEAR     78  63  59 SE14      29.98R
GREAT BEND     PTCLDY    73  63  68 SE14      30.01R
LIBERAL        CLEAR     82  63  51 SE12      29.99S
$$

KSZ066>073-081>083-090>101-020200-
SOUTHEAST KANSAS

CITY           SKY/WX    TMP DP  RH WIND       PRES   REMARKS
CHANUTE        CLEAR     66  57  72 E6        30.07F
COFFEYVILLE    PTCLDY    70  59  68 E7        30.05S
HUTCHINSON     CLOUDY    74  58  57 SE9       30.03S
MEDICINE LODGE   N/A     77  62  59 SE10G17   30.00S
NEWTON         CLEAR     72  55  56 SE8       30.07S
PARSONS        PTCLDY    69  60  73 CALM      30.07F
WICHITA INTL   PTCLDY    73  57  57 SE10      30.03S
WICHITA JABRA  CLEAR     72  57  59 SE9       30.04S
WINFIELD       CLEAR     73  59  61 E9        30.05R
$$

KSZ007>012-019>026-033>040-048>060-102>105-020200-
NORTHEAST KANSAS

CITY           SKY/WX    TMP DP  RH WIND       PRES   REMARKS
CONCORDIA      CLEAR     70  56  61 SE14      30.04S
EMPORIA        PTCLDY    66  57  72 E13       30.07S
LAWRENCE       CLOUDY    64  54  69 SE10      30.11S
MANHATTAN      PTCLDY    71  57  61 SE7       30.05F
OLATHE IND     CLOUDY    61  54  77 E7        30.12S
OLATHE EXE     CLOUDY    61  54  77 E8        30.11S
SALINA         CLOUDY    74  59  59 SE9       30.04S
TOPEKA BILLARD CLEAR     65  54  67 SE13      30.10S
TOPEKA FORBES  PTCLDY    64  54  69 SE8       30.09S
$$


USA.gov is the U.S. government's official web portal to all federal, state and local government web resources and services.